Time,TemperatureF,DewpointF,PressureIn,WindDirection,WindDirectionDegrees,WindSpeedMPH,WindSpeedGustMPH,Humidity,HourlyPrecipIn,Conditions,Clouds,dailyrainin,SoftwareType,DateUTC
2013-04-22 00:00:00,25.0,-99.9,-100.00,NNE,20,24.0,32.0,-999,0.00,,,-99.99,,2013-04-22 08:00:00,
2013-04-22 00:32:00,25.0,-99.9,-100.00,NNE,20,24.0,32.0,-999,0.00,,,-99.99,,2013-04-22 08:32:00,
2013-04-22 00:42:00,25.0,-99.9,-100.00,NNE,20,24.0,32.0,-999,0.00,,,-99.99,,2013-04-22 08:42:00,
2013-04-22 00:53:00,25.0,-99.9,-100.00,NNE,20,24.0,32.0,-999,0.00,,,-99.99,,2013-04-22 08:53:00,
2013-04-22 01:00:00,24.0,-99.9,-100.00,NE,37,24.0,28.0,-999,0.00,,,0.00,,2013-04-22 09:00:00,
2013-04-22 01:33:00,24.0,-99.9,-100.00,NE,37,24.0,28.0,-999,0.00,,,0.00,,2013-04-22 09:33:00,
2013-04-22 01:42:00,24.0,-99.9,-100.00,NE,37,24.0,28.0,-999,0.00,,,0.00,,2013-04-22 09:42:00,
2013-04-22 01:53:00,24.0,-99.9,-100.00,NE,37,24.0,28.0,-999,0.00,,,0.00,,2013-04-22 09:53:00,
2013-04-22 02:00:00,24.0,-99.9,-100.00,NE,48,27.0,31.0,-999,-99.99,,,-99.99,,2013-04-22 10:00:00,
2013-04-22 02:33:00,24.0,-99.9,-100.00,NE,48,27.0,31.0,-999,-99.99,,,-99.99,,2013-04-22 10:33:00,
2013-04-22 02:42:00,24.0,-99.9,-100.00,NE,48,27.0,31.0,-999,-99.99,,,-99.99,,2013-04-22 10:42:00,
2013-04-22 02:53:00,24.0,-99.9,-100.00,NE,48,27.0,31.0,-999,-99.99,,,-99.99,,2013-04-22 10:53:00,
2013-04-22 03:00:00,25.0,-99.9,-100.00,NE,56,20.0,27.0,-999,0.00,,,0.00,,2013-04-22 11:00:00,
2013-04-22 03:33:00,25.0,-99.9,-100.00,NE,56,20.0,27.0,-999,0.00,,,0.00,,2013-04-22 11:33:00,
2013-04-22 03:43:00,25.0,-99.9,-100.00,NE,56,20.0,27.0,-999,0.00,,,0.00,,2013-04-22 11:43:00,
2013-04-22 03:53:00,25.0,-99.9,-100.00,NE,56,20.0,27.0,-999,0.00,,,0.00,,2013-04-22 11:53:00,
2013-04-22 04:00:00,24.0,-99.9,-100.00,NNE,29,19.0,26.0,-999,0.00,,,0.00,,2013-04-22 12:00:00,
2013-04-22 04:32:00,24.0,-99.9,-100.00,NNE,29,19.0,26.0,-999,0.00,,,0.00,,2013-04-22 12:32:00,
2013-04-22 04:42:00,24.0,-99.9,-100.00,NNE,29,19.0,26.0,-999,0.00,,,0.00,,2013-04-22 12:42:00,
2013-04-22 04:52:00,24.0,-99.9,-100.00,NNE,29,19.0,26.0,-999,0.00,,,0.00,,2013-04-22 12:52:00,
2013-04-22 05:00:00,24.0,-99.9,-100.00,NE,37,22.0,25.0,-999,0.00,,,0.01,,2013-04-22 13:00:00,
2013-04-22 05:32:00,24.0,-99.9,-100.00,NE,37,22.0,25.0,-999,0.00,,,0.01,,2013-04-22 13:32:00,
2013-04-22 05:42:00,24.0,-99.9,-100.00,NE,37,22.0,25.0,-999,0.00,,,0.01,,2013-04-22 13:42:00,
2013-04-22 05:53:00,24.0,-99.9,-100.00,NE,37,22.0,25.0,-999,0.00,,,0.01,,2013-04-22 13:53:00,
2013-04-22 06:00:00,25.0,-99.9,-100.00,NNE,20,21.0,27.0,-999,0.00,,,0.02,,2013-04-22 14:00:00,
2013-04-22 06:33:00,25.0,-99.9,-100.00,NNE,20,21.0,27.0,-999,0.00,,,0.02,,2013-04-22 14:33:00,
2013-04-22 06:42:00,25.0,-99.9,-100.00,NNE,20,21.0,27.0,-999,0.00,,,0.02,,2013-04-22 14:42:00,
2013-04-22 06:52:00,25.0,-99.9,-100.00,NNE,20,21.0,27.0,-999,0.00,,,0.02,,2013-04-22 14:52:00,
2013-04-22 07:00:00,25.0,-99.9,-100.00,NNE,12,17.0,27.0,-999,0.00,,,0.02,,2013-04-22 15:00:00,
2013-04-22 07:33:00,25.0,-99.9,-100.00,NNE,12,17.0,27.0,-999,0.00,,,0.02,,2013-04-22 15:33:00,
2013-04-22 07:43:00,25.0,-99.9,-100.00,NNE,12,17.0,27.0,-999,0.00,,,0.02,,2013-04-22 15:43:00,
2013-04-22 07:53:00,25.0,-99.9,-100.00,NNE,12,17.0,27.0,-999,0.00,,,0.02,,2013-04-22 15:53:00,
2013-04-22 08:00:00,25.0,-99.9,-100.00,East,85,14.0,19.0,-999,0.01,,,0.03,,2013-04-22 16:00:00,
2013-04-22 08:33:00,25.0,-99.9,-100.00,East,85,14.0,19.0,-999,0.01,,,0.03,,2013-04-22 16:33:00,
2013-04-22 08:42:00,25.0,-99.9,-100.00,East,85,14.0,19.0,-999,0.01,,,0.03,,2013-04-22 16:42:00,
2013-04-22 08:52:00,25.0,-99.9,-100.00,East,85,14.0,19.0,-999,0.01,,,0.03,,2013-04-22 16:52:00,
2013-04-22 09:00:00,25.0,-99.9,-100.00,NE,56,12.0,17.0,-999,0.02,,,0.05,,2013-04-22 17:00:00,
2013-04-22 09:32:00,25.0,-99.9,-100.00,NE,56,12.0,17.0,-999,0.02,,,0.05,,2013-04-22 17:32:00,
2013-04-22 09:43:00,25.0,-99.9,-100.00,NE,56,12.0,17.0,-999,0.02,,,0.05,,2013-04-22 17:43:00,
2013-04-22 09:52:00,25.0,-99.9,-100.00,NE,56,12.0,17.0,-999,0.02,,,0.05,,2013-04-22 17:52:00,
2013-04-22 10:00:00,28.0,-99.9,-100.00,NE,42,12.0,17.0,-999,0.01,,,0.06,,2013-04-22 18:00:00,
2013-04-22 10:32:00,28.0,-99.9,-100.00,NE,42,12.0,17.0,-999,0.01,,,0.06,,2013-04-22 18:32:00,
2013-04-22 10:42:00,28.0,-99.9,-100.00,NE,42,12.0,17.0,-999,0.01,,,0.06,,2013-04-22 18:42:00,
2013-04-22 10:52:00,28.0,-99.9,-100.00,NE,42,12.0,17.0,-999,0.01,,,0.06,,2013-04-22 18:52:00,
2013-04-22 11:00:00,30.0,-99.9,-100.00,ENE,72,15.0,18.0,-999,0.01,,,0.06,,2013-04-22 19:00:00,
2013-04-22 11:32:00,30.0,-99.9,-100.00,ENE,72,15.0,18.0,-999,0.01,,,0.06,,2013-04-22 19:32:00,
2013-04-22 11:42:00,30.0,-99.9,-100.00,ENE,72,15.0,18.0,-999,0.01,,,0.06,,2013-04-22 19:42:00,
2013-04-22 11:53:00,30.0,-99.9,-100.00,ENE,72,15.0,18.0,-999,0.01,,,0.06,,2013-04-22 19:53:00,
2013-04-22 12:00:00,31.0,-99.9,-100.00,East,86,14.0,17.0,-999,0.03,,,0.08,,2013-04-22 20:00:00,
2013-04-22 12:32:00,31.0,-99.9,-100.00,East,86,14.0,17.0,-999,0.03,,,0.08,,2013-04-22 20:32:00,
2013-04-22 12:42:00,31.0,-99.9,-100.00,East,86,14.0,17.0,-999,0.03,,,0.08,,2013-04-22 20:42:00,
2013-04-22 12:52:00,31.0,-99.9,-100.00,East,86,14.0,17.0,-999,0.03,,,0.08,,2013-04-22 20:52:00,
2013-04-22 13:00:00,31.0,-99.9,-100.00,NNE,32,8.0,10.0,-999,0.02,,,0.10,,2013-04-22 21:00:00,
2013-04-22 13:33:00,31.0,-99.9,-100.00,NNE,32,8.0,10.0,-999,0.02,,,0.10,,2013-04-22 21:33:00,
2013-04-22 13:43:00,31.0,-99.9,-100.00,NNE,32,8.0,10.0,-999,0.02,,,0.10,,2013-04-22 21:43:00,
2013-04-22 13:53:00,31.0,-99.9,-100.00,NNE,32,8.0,10.0,-999,0.02,,,0.10,,2013-04-22 21:53:00,
2013-04-22 14:00:00,32.0,-99.9,-100.00,NE,56,9.0,11.0,-999,0.02,,,0.11,,2013-04-22 22:00:00,
2013-04-22 14:33:00,32.0,-99.9,-100.00,NE,56,9.0,11.0,-999,0.02,,,0.11,,2013-04-22 22:33:00,
2013-04-22 14:42:00,32.0,-99.9,-100.00,NE,56,9.0,11.0,-999,0.02,,,0.11,,2013-04-22 22:42:00,
2013-04-22 14:52:00,32.0,-99.9,-100.00,NE,56,9.0,11.0,-999,0.02,,,0.11,,2013-04-22 22:52:00,
2013-04-22 15:00:00,33.0,-99.9,-100.00,East,83,9.0,14.0,-999,0.03,,,0.14,,2013-04-22 23:00:00,
2013-04-22 15:33:00,33.0,-99.9,-100.00,East,83,9.0,14.0,-999,0.03,,,0.14,,2013-04-22 23:33:00,
2013-04-22 15:43:00,33.0,-99.9,-100.00,East,83,9.0,14.0,-999,0.03,,,0.14,,2013-04-22 23:43:00,
2013-04-22 15:52:00,33.0,-99.9,-100.00,East,83,9.0,14.0,-999,0.03,,,0.14,,2013-04-22 23:52:00,
2013-04-22 16:00:00,33.0,-99.9,-100.00,ENE,76,13.0,16.0,-999,0.03,,,0.15,,2013-04-23 00:00:00,
2013-04-22 16:32:00,33.0,-99.9,-100.00,ENE,76,13.0,16.0,-999,0.03,,,0.15,,2013-04-23 00:32:00,
2013-04-22 16:42:00,33.0,-99.9,-100.00,ENE,76,13.0,16.0,-999,0.03,,,0.15,,2013-04-23 00:42:00,
2013-04-22 16:52:00,33.0,-99.9,-100.00,ENE,76,13.0,16.0,-999,0.03,,,0.15,,2013-04-23 00:52:00,
2013-04-22 17:00:00,33.0,-99.9,-100.00,ESE,106,13.0,17.0,-999,0.01,,,0.16,,2013-04-23 01:00:00,
2013-04-22 17:32:00,33.0,-99.9,-100.00,ESE,106,13.0,17.0,-999,0.01,,,0.16,,2013-04-23 01:32:00,
2013-04-22 17:42:00,33.0,-99.9,-100.00,ESE,106,13.0,17.0,-999,0.01,,,0.16,,2013-04-23 01:42:00,
2013-04-22 17:52:00,33.0,-99.9,-100.00,ESE,106,13.0,17.0,-999,0.01,,,0.16,,2013-04-23 01:52:00,
2013-04-22 18:00:00,32.0,-99.9,-100.00,ENE,58,12.0,17.0,-999,0.00,,,0.16,,2013-04-23 02:00:00,
2013-04-22 18:33:00,32.0,-99.9,-100.00,ENE,58,12.0,17.0,-999,0.00,,,0.16,,2013-04-23 02:33:00,
2013-04-22 18:42:00,32.0,-99.9,-100.00,ENE,58,12.0,17.0,-999,0.00,,,0.16,,2013-04-23 02:42:00,
2013-04-22 18:52:00,32.0,-99.9,-100.00,ENE,58,12.0,17.0,-999,0.00,,,0.16,,2013-04-23 02:52:00,
2013-04-22 19:00:00,31.0,-99.9,-100.00,East,84,18.0,22.0,-999,0.01,,,0.17,,2013-04-23 03:00:00,
2013-04-22 19:33:00,31.0,-99.9,-100.00,East,84,18.0,22.0,-999,0.01,,,0.17,,2013-04-23 03:33:00,
2013-04-22 19:43:00,31.0,-99.9,-100.00,East,84,18.0,22.0,-999,0.01,,,0.17,,2013-04-23 03:43:00,
2013-04-22 19:53:00,31.0,-99.9,-100.00,East,84,18.0,22.0,-999,0.01,,,0.17,,2013-04-23 03:53:00,
2013-04-22 20:00:00,30.0,-99.9,-100.00,ENE,67,15.0,20.0,-999,0.00,,,0.19,,2013-04-23 04:00:00,
2013-04-22 20:33:00,30.0,-99.9,-100.00,ENE,67,15.0,20.0,-999,0.00,,,0.19,,2013-04-23 04:33:00,
2013-04-22 20:44:00,30.0,-99.9,-100.00,ENE,67,15.0,20.0,-999,0.00,,,0.19,,2013-04-23 04:44:00,
2013-04-22 20:53:00,30.0,-99.9,-100.00,ENE,67,15.0,20.0,-999,0.00,,,0.19,,2013-04-23 04:53:00,
2013-04-22 21:00:00,29.0,-99.9,-100.00,ENE,60,16.0,21.0,-999,-99.99,,,0.18,,2013-04-23 05:00:00,
2013-04-22 21:33:00,29.0,-99.9,-100.00,ENE,60,16.0,21.0,-999,-99.99,,,0.18,,2013-04-23 05:33:00,
2013-04-22 21:43:00,29.0,-99.9,-100.00,ENE,60,16.0,21.0,-999,-99.99,,,0.18,,2013-04-23 05:43:00,
2013-04-22 21:52:00,29.0,-99.9,-100.00,ENE,60,16.0,21.0,-999,-99.99,,,0.18,,2013-04-23 05:52:00,
2013-04-22 22:00:00,30.0,-99.9,-100.00,NE,51,19.0,23.0,-999,0.00,,,0.18,,2013-04-23 06:00:00,
2013-04-22 22:33:00,30.0,-99.9,-100.00,NE,51,19.0,23.0,-999,0.00,,,0.18,,2013-04-23 06:33:00,
2013-04-22 22:42:00,30.0,-99.9,-100.00,NE,51,19.0,23.0,-999,0.00,,,0.18,,2013-04-23 06:42:00,
2013-04-22 22:52:00,30.0,-99.9,-100.00,NE,51,19.0,23.0,-999,0.00,,,0.18,,2013-04-23 06:52:00,
2013-04-22 23:00:00,30.0,-99.9,-100.00,NNE,12,19.0,23.0,-999,-99.99,,,0.17,,2013-04-23 07:00:00,
2013-04-22 23:32:00,30.0,-99.9,-100.00,NNE,12,19.0,23.0,-999,-99.99,,,0.17,,2013-04-23 07:32:00,
2013-04-22 23:42:00,30.0,-99.9,-100.00,NNE,12,19.0,23.0,-999,-99.99,,,0.17,,2013-04-23 07:42:00,
2013-04-22 23:52:00,30.0,-99.9,-100.00,NNE,12,19.0,23.0,-999,-99.99,,,0.17,,2013-04-23 07:52:00,